Time,TemperatureF,DewpointF,PressureIn,WindDirection,WindDirectionDegrees,WindSpeedMPH,WindSpeedGustMPH,Humidity,HourlyPrecipIn,Conditions,Clouds,dailyrainin,SoftwareType,DateUTC
2013-11-23 00:03:00,-999.0,-99.9,30.11,SW,225,2.0,3.0,-999,0.00,,,0.01,,2013-11-23 05:03:00,
2013-11-23 00:12:00,-999.0,-99.9,30.11,WSW,249,1.0,4.0,-999,0.00,,,0.01,,2013-11-23 05:12:00,
2013-11-23 00:23:00,-999.0,-99.9,30.11,WSW,249,1.0,4.0,-999,0.00,,,0.01,,2013-11-23 05:23:00,
2013-11-23 00:33:00,-999.0,-99.9,30.11,WSW,253,0.0,2.0,-999,0.00,,,0.01,,2013-11-23 05:33:00,
2013-11-23 00:43:00,-999.0,-99.9,30.11,WSW,253,0.0,2.0,-999,0.00,,,0.01,,2013-11-23 05:43:00,
2013-11-23 00:53:00,-999.0,-99.9,30.10,WSW,249,0.0,2.0,-999,0.00,,,0.01,,2013-11-23 05:53:00,
2013-11-23 01:02:00,-999.0,-99.9,30.10,West,270,0.0,1.0,-999,0.00,,,0.01,,2013-11-23 06:02:00,
2013-11-23 01:12:00,-999.0,-99.9,30.10,West,270,0.0,1.0,-999,0.00,,,0.01,,2013-11-23 06:12:00,
2013-11-23 01:22:00,-999.0,-99.9,30.09,West,273,0.0,1.0,-999,0.00,,,0.01,,2013-11-23 06:22:00,
2013-11-23 01:32:00,-999.0,-99.9,30.09,West,266,0.0,2.0,-999,0.00,,,0.01,,2013-11-23 06:32:00,
2013-11-23 01:42:00,-999.0,-99.9,30.09,West,266,0.0,2.0,-999,0.00,,,0.01,,2013-11-23 06:42:00,
2013-11-23 01:53:00,-999.0,-99.9,30.08,West,274,0.0,2.0,-999,0.00,,,0.01,,2013-11-23 06:53:00,
2013-11-23 02:02:00,-999.0,-99.9,30.08,West,276,0.0,2.0,-999,0.00,,,0.01,,2013-11-23 07:02:00,
2013-11-23 02:11:00,-999.0,-99.9,30.08,West,276,0.0,2.0,-999,0.00,,,0.01,,2013-11-23 07:11:00,
2013-11-23 02:22:00,-999.0,-99.9,30.08,West,270,0.0,2.0,-999,0.00,,,0.01,,2013-11-23 07:22:00,
2013-11-23 02:32:00,-999.0,-99.9,30.08,West,270,0.0,3.0,-999,0.00,,,0.01,,2013-11-23 07:32:00,
2013-11-23 02:42:00,-999.0,-99.9,30.08,West,270,0.0,3.0,-999,0.00,,,0.01,,2013-11-23 07:42:00,
2013-11-23 02:52:00,-999.0,-99.9,30.07,West,264,1.0,3.0,-999,0.00,,,0.01,,2013-11-23 07:52:00,
2013-11-23 03:01:00,-999.0,-99.9,30.07,WNW,283,1.0,3.0,-999,0.00,,,0.01,,2013-11-23 08:01:00,
2013-11-23 03:12:00,-999.0,-99.9,30.06,WNW,288,1.0,3.0,-999,0.00,,,0.01,,2013-11-23 08:12:00,
2013-11-23 03:22:00,-999.0,-99.9,30.06,WNW,288,1.0,3.0,-999,0.00,,,0.01,,2013-11-23 08:22:00,
2013-11-23 03:32:00,-999.0,-99.9,30.06,SW,218,1.0,3.0,-999,0.00,,,0.01,,2013-11-23 08:32:00,
2013-11-23 03:42:00,-999.0,-99.9,30.06,SW,218,1.0,3.0,-999,0.00,,,0.01,,2013-11-23 08:42:00,
2013-11-23 03:52:00,-999.0,-99.9,30.05,West,269,0.0,3.0,-999,0.00,,,0.01,,2013-11-23 08:52:00,
2013-11-23 04:02:00,-999.0,-99.9,30.05,West,280,0.0,3.0,-999,0.00,,,0.01,,2013-11-23 09:02:00,
2013-11-23 04:12:00,-999.0,-99.9,30.05,West,280,0.0,3.0,-999,0.00,,,0.01,,2013-11-23 09:12:00,
2013-11-23 04:22:00,-999.0,-99.9,30.06,West,274,0.0,3.0,-999,0.00,,,0.01,,2013-11-23 09:22:00,
2013-11-23 04:33:00,-999.0,-99.9,30.06,West,274,0.0,2.0,-999,0.00,,,0.01,,2013-11-23 09:33:00,
2013-11-23 04:43:00,-999.0,-99.9,30.06,West,274,0.0,2.0,-999,0.00,,,0.01,,2013-11-23 09:43:00,
2013-11-23 04:54:00,-999.0,-99.9,30.06,WSW,248,0.0,2.0,-999,0.00,,,0.01,,2013-11-23 09:54:00,
2013-11-23 05:03:00,-999.0,-99.9,30.05,West,276,0.0,3.0,-999,0.00,,,0.01,,2013-11-23 10:03:00,
2013-11-23 05:13:00,-999.0,-99.9,30.05,West,276,0.0,3.0,-999,0.00,,,0.01,,2013-11-23 10:13:00,
2013-11-23 05:23:00,-999.0,-99.9,30.05,West,261,0.0,2.0,-999,0.00,,,0.01,,2013-11-23 10:23:00,
2013-11-23 05:34:00,-999.0,-99.9,30.05,WSW,250,0.0,2.0,-999,0.00,,,0.01,,2013-11-23 10:34:00,
2013-11-23 05:43:00,-999.0,-99.9,30.05,WSW,250,0.0,2.0,-999,0.00,,,0.01,,2013-11-23 10:43:00,
2013-11-23 05:52:00,-999.0,-99.9,30.05,West,267,0.0,2.0,-999,0.00,,,0.01,,2013-11-23 10:52:00,
2013-11-23 06:02:00,-999.0,-99.9,30.05,West,272,0.0,2.0,-999,0.00,,,0.01,,2013-11-23 11:02:00,
2013-11-23 06:12:00,-999.0,-99.9,30.05,WNW,283,0.0,2.0,-999,0.00,,,0.01,,2013-11-23 11:12:00,
2013-11-23 06:23:00,-999.0,-99.9,30.05,WNW,283,0.0,2.0,-999,0.00,,,0.01,,2013-11-23 11:23:00,
2013-11-23 06:33:00,-999.0,-99.9,30.05,West,271,0.0,1.0,-999,0.00,,,0.01,,2013-11-23 11:33:00,
2013-11-23 06:43:00,-999.0,-99.9,30.05,West,271,0.0,1.0,-999,0.00,,,0.01,,2013-11-23 11:43:00,
2013-11-23 06:53:00,-999.0,-99.9,30.05,West,259,0.0,2.0,-999,0.00,,,0.01,,2013-11-23 11:53:00,
2013-11-23 07:02:00,-999.0,-99.9,30.05,West,277,0.0,1.0,-999,0.00,,,0.01,,2013-11-23 12:02:00,
2013-11-23 07:12:00,-999.0,-99.9,30.05,West,277,0.0,1.0,-999,0.00,,,0.01,,2013-11-23 12:12:00,
2013-11-23 07:22:00,-999.0,-99.9,30.05,WNW,285,0.0,2.0,-999,0.00,,,0.01,,2013-11-23 12:22:00,
2013-11-23 07:32:00,-999.0,-99.9,30.06,NNW,342,0.0,1.0,-999,0.00,,,0.01,,2013-11-23 12:32:00,
2013-11-23 07:42:00,-999.0,-99.9,30.06,NNW,342,0.0,1.0,-999,0.00,,,0.01,,2013-11-23 12:42:00,
2013-11-23 07:52:00,-999.0,-99.9,30.06,NNW,330,0.0,1.0,-999,0.00,,,0.01,,2013-11-23 12:52:00,
2013-11-23 08:01:00,-999.0,-99.9,30.06,SSW,195,0.0,0.0,-999,0.00,,,0.01,,2013-11-23 13:01:00,
2013-11-23 08:11:00,-999.0,-99.9,30.06,SSW,195,0.0,0.0,-999,0.00,,,0.01,,2013-11-23 13:11:00,
2013-11-23 08:22:00,-999.0,-99.9,30.07,SSW,195,0.0,0.0,-999,0.00,,,0.01,,2013-11-23 13:22:00,
2013-11-23 08:32:00,-999.0,-99.9,30.06,SE,143,0.0,0.0,-999,0.00,,,0.01,,2013-11-23 13:32:00,
2013-11-23 08:42:00,-999.0,-99.9,30.06,SE,143,0.0,0.0,-999,0.00,,,0.01,,2013-11-23 13:42:00,
2013-11-23 08:52:00,-999.0,-99.9,30.06,SW,226,0.0,2.0,-999,0.00,,,0.01,,2013-11-23 13:52:00,
2013-11-23 09:02:00,-999.0,-99.9,30.06,WNW,283,0.0,2.0,-999,0.00,,,0.00,,2013-11-23 14:02:00,
2013-11-23 09:11:00,-999.0,-99.9,30.06,West,280,2.0,4.0,-999,0.00,,,0.00,,2013-11-23 14:11:00,
2013-11-23 09:22:00,-999.0,-99.9,30.06,West,280,2.0,4.0,-999,0.00,,,0.00,,2013-11-23 14:22:00,
2013-11-23 09:32:00,-999.0,-99.9,30.06,WNW,291,1.0,3.0,-999,0.00,,,0.00,,2013-11-23 14:32:00,
2013-11-23 09:42:00,-999.0,-99.9,30.06,WNW,291,1.0,3.0,-999,0.00,,,0.00,,2013-11-23 14:42:00,
2013-11-23 09:52:00,-999.0,-99.9,30.06,North,1,0.0,2.0,-999,0.00,,,0.00,,2013-11-23 14:52:00,
2013-11-23 10:02:00,-999.0,-99.9,30.06,NE,34,0.0,4.0,-999,0.00,,,0.00,,2013-11-23 15:02:00,
2013-11-23 10:11:00,-999.0,-99.9,30.06,NE,34,0.0,4.0,-999,0.00,,,0.00,,2013-11-23 15:11:00,
2013-11-23 10:22:00,-999.0,-99.9,30.06,NW,322,1.0,6.0,-999,0.00,,,0.00,,2013-11-23 15:22:00,
2013-11-23 10:33:00,-999.0,-99.9,30.07,NE,37,0.0,4.0,-999,0.00,,,0.00,,2013-11-23 15:33:00,
2013-11-23 10:43:00,-999.0,-99.9,30.07,NE,37,0.0,4.0,-999,0.00,,,0.00,,2013-11-23 15:43:00,
2013-11-23 10:54:00,-999.0,-99.9,30.07,WNW,298,0.0,1.0,-999,0.00,,,0.00,,2013-11-23 15:54:00,
2013-11-23 11:04:00,-999.0,-99.9,30.06,NE,34,1.0,3.0,-999,0.00,,,0.00,,2013-11-23 16:04:00,
2013-11-23 11:13:00,-999.0,-99.9,30.07,WNW,295,0.0,13.0,-999,0.00,,,0.00,,2013-11-23 16:13:00,
2013-11-23 11:23:00,-999.0,-99.9,30.07,WNW,295,0.0,13.0,-999,0.00,,,0.00,,2013-11-23 16:23:00,
2013-11-23 11:33:00,-999.0,-99.9,30.07,SW,221,2.0,6.0,-999,0.00,,,0.00,,2013-11-23 16:33:00,
2013-11-23 11:43:00,-999.0,-99.9,30.07,SW,221,2.0,6.0,-999,0.00,,,0.00,,2013-11-23 16:43:00,
2013-11-23 11:53:00,-999.0,-99.9,30.08,WSW,253,0.0,4.0,-999,0.00,,,0.00,,2013-11-23 16:53:00,
2013-11-23 12:03:00,-999.0,-99.9,30.07,WNW,299,0.0,3.0,-999,0.01,,,0.01,,2013-11-23 17:03:00,
2013-11-23 12:12:00,-999.0,-99.9,30.06,SE,142,0.0,2.0,-999,0.01,,,0.01,,2013-11-23 17:12:00,
2013-11-23 12:23:00,-999.0,-99.9,30.06,SE,142,0.0,2.0,-999,0.01,,,0.01,,2013-11-23 17:23:00,
2013-11-23 12:34:00,-999.0,-99.9,30.06,NNW,329,1.0,3.0,-999,0.01,,,0.01,,2013-11-23 17:34:00,
2013-11-23 12:42:00,-999.0,-99.9,30.06,NNW,329,1.0,3.0,-999,0.01,,,0.01,,2013-11-23 17:42:00,
2013-11-23 12:52:00,-999.0,-99.9,30.06,North,352,0.0,4.0,-999,0.01,,,0.01,,2013-11-23 17:52:00,
2013-11-23 13:02:00,-999.0,-99.9,30.06,NNE,22,0.0,5.0,-999,0.01,,,0.02,,2013-11-23 18:02:00,
2013-11-23 13:12:00,-999.0,-99.9,30.06,NNE,22,0.0,5.0,-999,0.01,,,0.02,,2013-11-23 18:12:00,
2013-11-23 13:22:00,-999.0,-99.9,30.06,NNW,332,1.0,2.0,-999,0.01,,,0.02,,2013-11-23 18:22:00,
2013-11-23 13:33:00,-999.0,-99.9,30.05,SE,139,0.0,3.0,-999,0.01,,,0.02,,2013-11-23 18:33:00,
2013-11-23 13:42:00,-999.0,-99.9,30.05,SE,139,0.0,3.0,-999,0.01,,,0.02,,2013-11-23 18:42:00,
2013-11-23 13:52:00,-999.0,-99.9,30.05,NNW,333,0.0,1.0,-999,0.01,,,0.02,,2013-11-23 18:52:00,
2013-11-23 14:01:00,-999.0,-99.9,30.05,ESE,103,0.0,1.0,-999,0.00,,,0.02,,2013-11-23 19:01:00,
2013-11-23 14:11:00,-999.0,-99.9,30.05,ENE,77,0.0,1.0,-999,0.00,,,0.02,,2013-11-23 19:11:00,
2013-11-23 14:22:00,-999.0,-99.9,30.05,ENE,77,0.0,1.0,-999,0.00,,,0.02,,2013-11-23 19:22:00,
2013-11-23 14:32:00,-999.0,-99.9,30.04,ESE,105,0.0,2.0,-999,0.01,,,0.03,,2013-11-23 19:32:00,
2013-11-23 14:42:00,-999.0,-99.9,30.04,ESE,105,0.0,2.0,-999,0.01,,,0.03,,2013-11-23 19:42:00,
2013-11-23 14:52:00,-999.0,-99.9,30.03,NNW,335,0.0,1.0,-999,0.01,,,0.03,,2013-11-23 19:52:00,
2013-11-23 15:02:00,-999.0,-99.9,30.03,East,80,1.0,3.0,-999,0.01,,,0.03,,2013-11-23 20:02:00,
2013-11-23 15:11:00,-999.0,-99.9,30.03,East,80,1.0,3.0,-999,0.01,,,0.03,,2013-11-23 20:11:00,
2013-11-23 15:22:00,-999.0,-99.9,30.02,ENE,76,1.0,4.0,-999,0.01,,,0.03,,2013-11-23 20:22:00,
2013-11-23 15:32:00,-999.0,-99.9,30.02,East,84,3.0,6.0,-999,0.00,,,0.03,,2013-11-23 20:32:00,
2013-11-23 15:42:00,-999.0,-99.9,30.02,East,84,3.0,6.0,-999,0.00,,,0.03,,2013-11-23 20:42:00,
2013-11-23 15:53:00,-999.0,-99.9,30.02,East,96,0.0,4.0,-999,0.00,,,0.03,,2013-11-23 20:53:00,
2013-11-23 16:02:00,-999.0,-99.9,30.04,NW,319,0.0,1.0,-999,0.00,,,0.03,,2013-11-23 21:02:00,
2013-11-23 16:11:00,-999.0,-99.9,30.04,NW,319,0.0,1.0,-999,0.00,,,0.03,,2013-11-23 21:11:00,
2013-11-23 16:22:00,-999.0,-99.9,30.04,NW,312,0.0,3.0,-999,0.00,,,0.03,,2013-11-23 21:22:00,
2013-11-23 16:33:00,-999.0,-99.9,30.04,NNW,330,0.0,1.0,-999,0.00,,,0.03,,2013-11-23 21:33:00,
2013-11-23 16:43:00,-999.0,-99.9,30.04,NNW,330,0.0,1.0,-999,0.00,,,0.03,,2013-11-23 21:43:00,
2013-11-23 16:53:00,-999.0,-99.9,30.04,East,98,0.0,0.0,-999,0.00,,,0.03,,2013-11-23 21:53:00,
2013-11-23 17:03:00,-999.0,-99.9,30.04,West,277,0.0,0.0,-999,0.00,,,0.03,,2013-11-23 22:03:00,
2013-11-23 17:13:00,-999.0,-99.9,30.04,West,277,0.0,0.0,-999,0.00,,,0.03,,2013-11-23 22:13:00,
2013-11-23 17:23:00,-999.0,-99.9,30.05,West,278,0.0,0.0,-999,0.00,,,0.03,,2013-11-23 22:23:00,
2013-11-23 17:33:00,-999.0,-99.9,30.05,West,278,0.0,0.0,-999,0.00,,,0.03,,2013-11-23 22:33:00,
2013-11-23 17:43:00,-999.0,-99.9,30.05,West,278,0.0,0.0,-999,0.00,,,0.03,,2013-11-23 22:43:00,
2013-11-23 17:53:00,-999.0,-99.9,30.05,West,278,0.0,0.0,-999,0.00,,,0.03,,2013-11-23 22:53:00,
2013-11-23 18:02:00,-999.0,-99.9,30.05,West,278,0.0,0.0,-999,0.00,,,0.03,,2013-11-23 23:02:00,
2013-11-23 18:12:00,-999.0,-99.9,30.05,West,278,0.0,0.0,-999,0.00,,,0.03,,2013-11-23 23:12:00,
2013-11-23 18:22:00,-999.0,-99.9,30.05,West,277,0.0,0.0,-999,0.00,,,0.03,,2013-11-23 23:22:00,
2013-11-23 18:33:00,-999.0,-99.9,30.06,West,278,0.0,1.0,-999,0.00,,,0.03,,2013-11-23 23:33:00,
2013-11-23 18:42:00,-999.0,-99.9,30.06,West,278,0.0,1.0,-999,0.00,,,0.03,,2013-11-23 23:42:00,
2013-11-23 18:53:00,-999.0,-99.9,30.05,West,278,0.0,0.0,-999,0.00,,,0.03,,2013-11-23 23:53:00,
2013-11-23 19:02:00,-999.0,-99.9,30.05,West,278,0.0,0.0,-999,0.00,,,0.03,,2013-11-24 00:02:00,
2013-11-23 19:11:00,-999.0,-99.9,30.05,West,278,0.0,0.0,-999,0.00,,,0.03,,2013-11-24 00:11:00,
2013-11-23 19:22:00,-999.0,-99.9,30.05,West,278,0.0,0.0,-999,0.00,,,0.03,,2013-11-24 00:22:00,
2013-11-23 19:32:00,-999.0,-99.9,30.06,West,278,0.0,0.0,-999,0.00,,,0.03,,2013-11-24 00:32:00,
2013-11-23 19:42:00,-999.0,-99.9,30.06,West,278,0.0,0.0,-999,0.00,,,0.03,,2013-11-24 00:42:00,
2013-11-23 19:52:00,-999.0,-99.9,30.06,West,278,0.0,0.0,-999,0.00,,,0.03,,2013-11-24 00:52:00,
2013-11-23 20:02:00,-999.0,-99.9,30.06,West,278,0.0,0.0,-999,0.00,,,0.03,,2013-11-24 01:02:00,
2013-11-23 20:11:00,-999.0,-99.9,30.06,West,278,0.0,0.0,-999,0.00,,,0.03,,2013-11-24 01:11:00,
2013-11-23 20:22:00,-999.0,-99.9,30.06,West,278,0.0,0.0,-999,0.00,,,0.03,,2013-11-24 01:22:00,
2013-11-23 20:32:00,-999.0,-99.9,30.06,West,278,0.0,0.0,-999,0.00,,,0.03,,2013-11-24 01:32:00,
2013-11-23 20:43:00,-999.0,-99.9,30.06,West,278,0.0,0.0,-999,0.00,,,0.03,,2013-11-24 01:43:00,
2013-11-23 20:53:00,-999.0,-99.9,30.06,West,278,0.0,0.0,-999,0.00,,,0.03,,2013-11-24 01:53:00,
2013-11-23 21:01:00,-999.0,-99.9,30.06,West,278,0.0,0.0,-999,0.00,,,0.03,,2013-11-24 02:01:00,
2013-11-23 21:12:00,-999.0,-99.9,30.06,West,278,0.0,0.0,-999,0.00,,,0.03,,2013-11-24 02:12:00,
2013-11-23 21:22:00,-999.0,-99.9,30.06,West,278,0.0,0.0,-999,0.00,,,0.03,,2013-11-24 02:22:00,
2013-11-23 21:32:00,-999.0,-99.9,30.06,West,278,0.0,1.0,-999,0.00,,,0.03,,2013-11-24 02:32:00,
2013-11-23 21:42:00,-999.0,-99.9,30.06,West,278,0.0,1.0,-999,0.00,,,0.03,,2013-11-24 02:42:00,
2013-11-23 21:52:00,-999.0,-99.9,30.06,West,278,0.0,0.0,-999,0.00,,,0.03,,2013-11-24 02:52:00,
2013-11-23 22:02:00,-999.0,-99.9,30.07,West,278,0.0,0.0,-999,0.00,,,0.03,,2013-11-24 03:02:00,
2013-11-23 22:11:00,-999.0,-99.9,30.07,West,278,0.0,0.0,-999,0.00,,,0.03,,2013-11-24 03:11:00,
2013-11-23 22:22:00,-999.0,-99.9,30.07,West,278,0.0,0.0,-999,0.00,,,0.03,,2013-11-24 03:22:00,
2013-11-23 22:33:00,-999.0,-99.9,30.07,West,278,0.0,0.0,-999,0.00,,,0.03,,2013-11-24 03:33:00,
2013-11-23 22:43:00,-999.0,-99.9,30.07,West,278,0.0,0.0,-999,0.00,,,0.03,,2013-11-24 03:43:00,
2013-11-23 22:54:00,-999.0,-99.9,30.08,NW,316,0.0,0.0,-999,0.00,,,0.03,,2013-11-24 03:54:00,
2013-11-23 23:03:00,-999.0,-99.9,30.07,North,11,0.0,3.0,-999,0.00,,,0.03,,2013-11-24 04:03:00,
2013-11-23 23:13:00,-999.0,-99.9,30.08,SW,226,0.0,2.0,-999,0.00,,,0.03,,2013-11-24 04:13:00,
2013-11-23 23:23:00,-999.0,-99.9,30.08,SW,226,0.0,2.0,-999,0.00,,,0.03,,2013-11-24 04:23:00,
2013-11-23 23:33:00,-999.0,-99.9,30.08,NW,307,0.0,2.0,-999,0.00,,,0.03,,2013-11-24 04:33:00,
2013-11-23 23:43:00,-999.0,-99.9,30.08,NW,307,0.0,2.0,-999,0.00,,,0.03,,2013-11-24 04:43:00,
2013-11-23 23:53:00,-999.0,-99.9,30.08,WNW,297,0.0,2.0,-999,0.00,,,0.03,,2013-11-24 04:53:00,